CW2433 Weather Reports


time (UTC)temp
C
wind
direction
speed
KPH
gust
KPH
rain 1hr
cm
rain 24hr
cm
rain mn
cm
humidity
%
barometer
mb
20260904003010 33 150 3.2 16.1 0.00 0.00 0.00 57 1007.6
20260904002510 33 173 3.2 14.5 0.00 0.00 0.00 57 1007.7
20260904002010 33 163 3.2 14.5 0.00 0.00 0.00 57 1007.6
20260904001510 33 150 4.8 19.3 0.00 0.00 0.00 57 1007.6
20260904001009 33 157 4.8 19.3 0.00 0.00 0.00 57 1007.6
20260904000509 33 182 3.2 19.3 0.00 0.00 0.00 58 1007.6
20260903235509 33 183 3.2 11.3 0.00 0.00 0.00 58 1007.3
20260903235009 33 155 1.6 19.3 0.00 0.00 0.00 57 1007.2
20260903234509 33 171 4.8 19.3 0.00 0.00 0.00 57 1007.2
20260903234009 33 184 4.8 16.1 0.00 0.00 0.00 57 1007.1
20260903233009 34 192 6.4 14.5 0.00 0.00 0.00 57 1007.1
20260903232509 34 166 4.8 16.1 0.00 0.00 0.00 57 1007.1
20260903232009 34 184 3.2 16.1 0.00 0.00 0.00 57 1007.1
20260903231509 34 156 6.4 16.1 0.00 0.00 0.00 56 1007.1
20260903231009 34 151 3.2 12.9 0.00 0.00 0.00 56 1007.1
20260903225509 34 162 6.4 16.1 0.00 0.00 0.00 55 1006.9
20260903225009 35 158 3.2 9.7 0.00 0.00 0.00 56 1006.9
20260903224009 35 163 4.8 16.1 0.00 0.00 0.00 54 1006.9
20260903223509 35 174 4.8 16.1 0.00 0.00 0.00 54 1006.9
20260903223010 35 184 6.4 19.3 0.00 0.00 0.00 53 1007.0
20260903222509 35 163 4.8 19.3 0.00 0.00 0.00 54 1006.9
20260903221509 35 185 6.4 19.3 0.00 0.00 0.00 53 1007.0
20260903221010 35 165 3.2 19.3 0.00 0.00 0.00 54 1006.9
20260903220509 35 179 4.8 19.3 0.00 0.00 0.00 53 1006.9
20260903215509 35 177 4.8 11.3 0.00 0.00 0.00 53 1006.9
20260903214510 35 192 8.0 24.1 0.00 0.00 0.00 52 1006.9
20260903214009 35 168 6.4 19.3 0.00 0.00 0.00 53 1006.9
20260903213509 35 171 4.8 22.5 0.00 0.00 0.00 53 1006.9
20260903213010 35 173 8.0 22.5 0.00 0.00 0.00 52 1007.0
20260903212510 35 177 8.0 19.3 0.00 0.00 0.00 52 1006.9
20260903212010 35 196 6.4 19.3 0.00 0.00 0.00 53 1006.9
20260903211510 35 159 4.8 27.4 0.00 0.00 0.00 52 1007.0
20260903211010 35 188 8.0 27.4 0.00 0.00 0.00 52 1007.0
20260903210010 35 168 6.4 19.3 0.00 0.00 0.00 52 1007.0
20260903205509 35 203 4.8 19.3 0.00 0.00 0.00 53 1007.0
20260903205010 35 163 8.0 19.3 0.00 0.00 0.00 53 1007.0
20260903204010 35 173 8.0 19.3 0.00 0.00 0.00 54 1007.1
20260903203510 35 156 4.8 20.9 0.00 0.00 0.00 54 1007.3
20260903203010 35 178 4.8 20.9 0.00 0.00 0.00 55 1007.3
20260903202510 35 200 4.8 22.5 0.00 0.00 0.00 54 1007.4
20260903202010 35 208 11.3 22.5 0.00 0.00 0.00 53 1007.4
20260903201510 35 216 4.8 22.5 0.00 0.00 0.00 55 1007.4
20260903201010 34 216 6.4 16.1 0.00 0.00 0.00 56 1007.5
20260903200510 34 184 8.0 19.3 0.00 0.00 0.00 56 1007.5
20260903195510 33 168 8.0 19.3 0.00 0.00 0.00 57 1007.6
20260903195010 33 196 6.4 19.3 0.00 0.00 0.00 57 1007.6
20260903194510 33 177 4.8 19.3 0.00 0.00 0.00 59 1007.6
20260903194010 33 175 3.2 19.3 0.00 0.00 0.00 60 1007.7
20260903193510 33 161 4.8 19.3 0.00 0.00 0.00 60 1008.0
20260903193010 33 157 4.8 19.3 0.00 0.00 0.00 61 1008.0
20260903192509 33 170 4.8 19.3 0.00 0.00 0.00 61 1008.1
20260903192009 33 207 4.8 19.3 0.00 0.00 0.00 61 1008.1
20260903191509 33 185 4.8 19.3 0.00 0.00 0.00 61 1008.1
20260903191009 33 187 4.8 19.3 0.00 0.00 0.00 61 1008.4
20260903190509 33 205 4.8 19.3 0.00 0.00 0.00 61 1008.5
20260903190010 32 158 6.4 19.3 0.00 0.00 0.00 61 1008.6
20260903185509 32 195 4.8 19.3 0.00 0.00 0.00 61 1008.6
20260903185009 32 196 4.8 19.3 0.00 0.00 0.00 62 1008.6
20260903184509 32 122 3.2 16.1 0.00 0.00 0.00 63 1008.6
20260903184009 32 125 6.4 19.3 0.00 0.00 0.00 62 1008.9
20260903183509 32 150 8.0 19.3 0.00 0.00 0.00 62 1008.9
20260903183009 32 191 6.4 19.3 0.00 0.00 0.00 62 1009.0
20260903181509 32 168 3.2 14.5 0.00 0.00 0.00 61 1009.2
20260903181009 32 211 3.2 19.3 0.00 0.00 0.00 62 1009.2
20260903180509 32 150 8.0 19.3 0.00 0.00 0.00 60 1009.2
20260903180009 32 177 3.2 19.3 0.00 0.00 0.00 61 1009.2
20260903175509 32 175 4.8 19.3 0.00 0.00 0.00 59 1009.3
20260903175009 32 167 4.8 14.5 0.00 0.00 0.00 61 1009.5
20260903174510 32 178 4.8 14.5 0.00 0.00 0.00 60 1009.4
20260903174009 32 168 4.8 16.1 0.00 0.00 0.00 61 1009.5
20260903173509 32 177 4.8 16.1 0.00 0.00 0.00 61 1009.7
20260903173009 32 167 4.8 16.1 0.00 0.00 0.00 63 1009.7
20260903172509 32 125 3.2 16.1 0.00 0.00 0.00 64 1009.7
20260903172009 31 172 3.2 9.7 0.00 0.00 0.00 65 1009.7
20260903171510 31 148 4.8 11.3 0.00 0.00 0.00 64 1009.8
20260903171009 31 163 6.4 11.3 0.00 0.00 0.00 66 1009.8
20260903170509 30 161 4.8 11.3 0.00 0.00 0.00 67 1009.9
20260903170010 30 203 3.2 8.0 0.00 0.00 0.00 69 1010.0
20260903165010 30 214 1.6 14.5 0.00 0.00 0.00 71 1010.0
20260903164510 30 175 4.8 14.5 0.00 0.00 0.00 70 1009.9
20260903163509 29 158 3.2 11.3 0.00 0.00 0.00 68 1009.8
20260903163010 29 178 3.2 19.3 0.00 0.00 0.00 69 1009.9
20260903162010 28 134 3.2 19.3 0.00 0.00 0.00 71 1010.0
20260903161510 28 174 3.2 12.9 0.00 0.00 0.00 72 1010.0
20260903161010 28 162 4.8 12.9 0.00 0.00 0.00 72 1010.0
20260903160510 28 139 6.4 14.5 0.00 0.00 0.00 73 1010.0
20260903160010 28 169 3.2 16.1 0.00 0.00 0.00 73 1009.9
20260903154510 27 183 4.8 11.3 0.00 0.00 0.00 73 1010.1
20260903154010 27 162 1.6 11.3 0.00 0.00 0.00 73 1010.1
20260903153510 27 138 4.8 11.3 0.00 0.00 0.00 73 1010.3
20260903153010 27 153 3.2 11.3 0.00 0.00 0.00 73 1010.5
20260903152510 27 129 6.4 11.3 0.00 0.00 0.00 74 1010.5
20260903152010 27 148 3.2 9.7 0.00 0.00 0.00 74 1010.5
20260903151510 27 131 3.2 9.7 0.00 0.00 0.00 74 1010.4
20260903151010 27 127 3.2 4.8 0.00 0.00 0.00 74 1010.6
20260903150010 27 142 0.0 4.8 0.00 0.00 0.00 75 1010.6
20260903145010 26 134 4.8 12.9 0.00 0.00 0.00 75 1010.2
20260903143509 26 130 1.6 9.7 0.00 0.00 0.00 76 1010.1
20260903143009 26 117 1.6 9.7 0.00 0.00 0.00 76 1010.1
20260903142509 26 114 1.6 9.7 0.00 0.00 0.00 76 1010.1
20260903142009 26 115 3.2 8.0 0.00 0.00 0.00 77 1010.1
20260903141509 26 160 3.2 9.7 0.00 0.00 0.00 77 1010.1
20260903141009 26 148 3.2 9.7 0.00 0.00 0.00 77 1010.1
20260903140009 26 151 1.6 8.0 0.00 0.00 0.00 78 1010.0
20260903135509 26 148 3.2 9.7 0.00 0.00 0.00 78 1010.0
20260903134509 26 145 3.2 4.8 0.00 0.00 0.00 79 1009.9
20260903134009 26 118 0.0 4.8 0.00 0.00 0.00 79 1010.0
20260903133509 25 141 1.6 3.2 0.00 0.00 0.00 78 1010.1
20260903133009 25 142 1.6 8.0 0.00 0.00 0.00 78 1010.2
20260903132509 25 129 1.6 8.0 0.00 0.00 0.00 78 1010.1
20260903132009 25 128 1.6 8.0 0.00 0.00 0.00 78 1010.3
20260903131510 25 159 1.6 4.8 0.00 0.00 0.00 77 1010.3
20260903131009 25 122 0.0 4.8 0.00 0.00 0.00 77 1010.4
20260903130010 25 142 1.6 3.2 0.00 0.00 0.00 77 1010.5
20260903125509 25 142 0.0 3.2 0.00 0.00 0.00 76 1010.6
20260903125009 25 142 0.0 3.2 0.00 0.00 0.00 76 1010.6
20260903124510 26 142 1.6 3.2 0.00 0.00 0.00 76 1010.4
20260903123509 26 142 0.0 3.2 0.00 0.00 0.00 76 1010.4
20260903123009 26 142 1.6 3.2 0.00 0.00 0.00 76 1010.4
20260903122509 26 142 1.6 3.2 0.00 0.00 0.00 75 1010.1
20260903122009 26 142 0.0 3.2 0.00 0.00 0.00 75 1010.0
20260903121510 26 142 0.0 3.2 0.00 0.00 0.00 74 1009.9
20260903121010 26 142 0.0 3.2 0.00 0.00 0.00 73 1009.9
20260903120509 26 142 0.0 3.2 0.00 0.00 0.00 73 1009.8
20260903120010 26 142 0.0 4.8 0.00 0.00 0.00 73 1009.7
20260903115509 26 142 1.6 4.8 0.00 0.00 0.00 72 1009.6
20260903114510 26 143 0.0 3.2 0.00 0.00 0.00 72 1009.6
20260903113510 26 143 0.0 3.2 0.00 0.00 0.00 72 1009.5
20260903112010 27 61 0.0 3.2 0.00 0.00 0.00 70 1009.2
20260903111010 27 61 1.6 4.8 0.00 0.00 0.00 70 1009.2
20260903110510 27 76 0.0 4.8 0.00 0.00 0.00 69 1009.2
20260903110010 27 67 0.0 4.8 0.00 0.00 0.00 69 1009.2
20260903105510 27 67 0.0 4.8 0.00 0.00 0.00 68 1009.3
20260903104510 27 184 0.0 3.2 0.00 0.00 0.00 67 1009.5
20260903104010 27 184 1.6 3.2 0.00 0.00 0.00 67 1009.5
20260903103510 27 184 0.0 8.0 0.00 0.00 0.00 67 1009.4
20260903103010 27 185 1.6 8.0 0.00 0.00 0.00 67 1009.3
20260903102510 27 181 3.2 4.8 0.00 0.00 0.00 67 1009.4
20260903102010 27 204 1.6 4.8 0.00 0.00 0.00 68 1009.2
20260903101510 27 190 1.6 8.0 0.00 0.00 0.00 69 1009.2
20260903101009 27 214 1.6 8.0 0.00 0.00 0.00 69 1009.1
20260903100509 27 144 1.6 11.3 0.00 0.00 0.00 69 1009.0
20260903100009 27 135 1.6 11.3 0.00 0.00 0.00 68 1008.9
20260903095509 27 115 3.2 8.0 0.00 0.00 0.00 68 1008.7
20260903095009 27 126 1.6 4.8 0.00 0.00 0.00 67 1008.8
20260903094508 27 126 3.2 8.0 0.00 0.00 0.00 66 1008.8
20260903093509 27 144 4.8 8.0 0.00 0.00 0.00 66 1008.8
20260903092509 27 138 1.6 9.7 0.00 0.00 0.00 65 1008.9
20260903092009 27 123 3.2 8.0 0.00 0.00 0.00 65 1009.1
20260903091510 27 146 1.6 8.0 0.00 0.00 0.00 65 1009.0
20260903090509 28 135 3.2 14.5 0.00 0.00 0.00 64 1009.0
20260903090008 28 145 3.2 14.5 0.00 0.00 0.00 64 1009.0
20260903085509 28 155 3.2 16.1 0.00 0.00 0.00 64 1009.0
20260903085009 28 161 3.2 16.1 0.00 0.00 0.00 64 1009.0
20260903084510 28 156 4.8 16.1 0.00 0.00 0.00 64 1009.0
20260903084009 28 137 3.2 9.7 0.00 0.00 0.00 64 1008.9
20260903083509 28 163 3.2 9.7 0.00 0.00 0.00 63 1009.0
20260903083010 28 171 3.2 11.3 0.00 0.00 0.00 63 1009.0
20260903082009 28 184 3.2 11.3 0.00 0.00 0.00 64 1008.9
20260903081509 28 165 3.2 9.7 0.00 0.00 0.00 64 1009.0
20260903081010 28 160 3.2 8.0 0.00 0.00 0.00 63 1008.9
20260903080509 28 138 1.6 9.7 0.00 0.00 0.00 63 1008.9
20260903075508 28 150 4.8 11.3 0.00 0.00 0.00 63 1009.1
20260903075009 28 171 3.2 16.1 0.00 0.00 0.00 63 1009.1
20260903074510 28 166 3.2 16.1 0.00 0.00 0.00 63 1009.1
20260903074009 28 174 4.8 19.3 0.00 0.00 0.00 63 1009.0
20260903073509 28 187 4.8 19.3 0.00 0.00 0.00 64 1009.1
20260903073010 28 141 3.2 11.3 0.00 0.00 0.00 64 1009.0
20260903072509 28 138 3.2 20.9 0.00 0.00 0.00 64 1009.0
20260903072010 28 133 3.2 20.9 0.00 0.00 0.00 64 1009.0
20260903071513 28 140 3.2 20.9 0.00 0.00 0.00 64 1009.0
20260903071009 28 160 3.2 9.7 0.00 0.00 0.00 64 1009.1
20260903070509 28 156 3.2 19.3 0.00 0.00 0.00 64 1009.0
20260903070010 28 141 3.2 19.3 0.00 0.00 0.00 64 1009.1
20260903065510 28 175 3.2 12.9 0.00 0.00 0.00 65 1009.1
20260903065010 28 179 3.2 12.9 0.00 0.00 0.00 64 1009.1
20260903064510 28 137 3.2 12.9 0.00 0.00 0.00 64 1009.1
20260903064010 28 155 4.8 9.7 0.00 0.00 0.00 64 1009.1
20260903063510 28 158 4.8 9.7 0.00 0.00 0.00 65 1009.1
20260903063010 28 184 3.2 9.7 0.00 0.00 0.00 65 1009.1
20260903061510 28 182 1.6 9.7 0.00 0.00 0.00 65 1009.1
20260903061010 28 151 3.2 11.3 0.00 0.00 0.00 66 1009.1
20260903060510 28 163 1.6 11.3 0.00 0.00 0.00 66 1009.2
20260903060010 28 157 3.2 8.0 0.00 0.00 0.00 66 1009.2
20260903055010 28 142 1.6 4.8 0.00 0.00 0.00 66 1009.2
20260903054510 28 170 1.6 4.8 0.00 0.00 0.00 66 1009.2
20260903054010 28 173 1.6 4.8 0.00 0.00 0.00 66 1009.2
20260903053510 28 149 1.6 8.0 0.00 0.00 0.00 66 1009.2
20260903053009 28 168 1.6 8.0 0.00 0.00 0.00 66 1009.2
20260903052009 28 155 1.6 4.8 0.00 0.00 0.00 66 1009.2
20260903051509 28 172 3.2 4.8 0.00 0.00 0.00 66 1009.2
20260903050509 28 166 3.2 12.9 0.00 0.00 0.00 66 1009.2
20260903050009 28 139 1.6 9.7 0.00 0.00 0.00 66 1009.4
20260903044509 28 164 3.2 11.3 0.00 0.00 0.00 66 1009.4
20260903044009 28 175 1.6 4.8 0.00 0.00 0.00 65 1009.4
20260903043509 28 182 1.6 4.8 0.00 0.00 0.00 65 1009.4
20260903043009 28 187 1.6 4.8 0.00 0.00 0.00 65 1009.4
20260903042009 28 138 3.2 8.0 0.00 0.00 0.00 65 1009.3
20260903041509 28 148 1.6 9.7 0.00 0.00 0.00 65 1009.3
20260903041009 28 189 1.6 9.7 0.00 0.00 0.00 65 1009.3
20260903040509 28 154 1.6 9.7 0.00 0.00 0.00 65 1009.3
20260903040009 29 159 3.2 9.7 0.00 0.00 0.00 64 1009.5
20260903035509 29 162 3.2 9.7 0.00 0.00 0.00 64 1009.4
20260903035009 29 164 1.6 9.7 0.00 0.00 0.00 64 1009.4
20260903034509 29 153 1.6 4.8 0.00 0.00 0.00 64 1009.4
20260903033509 29 183 1.6 11.3 0.00 0.00 0.00 64 1009.4
20260903033009 29 169 3.2 11.3 0.00 0.00 0.00 63 1009.4
20260903032509 30 179 3.2 9.7 0.00 0.00 0.00 63 1009.4
20260903031509 30 177 3.2 16.1 0.00 0.00 0.00 63 1009.4
20260903031009 30 159 3.2 11.3 0.00 0.00 0.00 63 1009.4
20260903030010 30 164 4.8 9.7 0.00 0.00 0.00 63 1009.4
20260903025510 30 165 3.2 9.7 0.00 0.00 0.00 63 1009.4
20260903025009 30 175 4.8 11.3 0.00 0.00 0.00 63 1009.4
20260903024510 30 159 4.8 11.3 0.00 0.00 0.00 62 1009.3
20260903023010 30 188 1.6 11.3 0.00 0.00 0.00 62 1009.1
20260903022509 30 199 4.8 11.3 0.00 0.00 0.00 62 1009.0
20260903022009 31 148 3.2 11.3 0.00 0.00 0.00 61 1008.9
20260903021510 31 181 3.2 11.3 0.00 0.00 0.00 61 1008.9
20260903021009 31 184 3.2 9.7 0.00 0.00 0.00 61 1008.9
20260903020509 31 159 1.6 11.3 0.00 0.00 0.00 62 1008.8
20260903020010 31 146 1.6 11.3 0.00 0.00 0.00 61 1008.9
20260903015510 31 144 1.6 8.0 0.00 0.00 0.00 61 1008.9
20260903015010 31 189 3.2 4.8 0.00 0.00 0.00 61 1008.8
20260903014510 32 165 1.6 4.8 0.00 0.00 0.00 60 1008.8
20260903014010 32 138 3.2 4.8 0.00 0.00 0.00 59 1008.8
20260903013510 32 161 0.0 0.0 0.00 0.00 0.00 59 1008.7
20260903013010 32 123 0.0 4.8 0.00 0.00 0.00 58 1008.6
20260903012010 32 158 1.6 8.0 0.00 0.00 0.00 56 1008.4
20260903011510 33 167 3.2 8.0 0.00 0.00 0.00 56 1008.4
20260903011010 33 160 1.6 4.8 0.00 0.00 0.00 55 1008.4
20260903010510 33 165 1.6 4.8 0.00 0.00 0.00 54 1008.3
20260903010010 33 158 3.2 4.8 0.00 0.00 0.00 54 1008.4
20260903005510 33 152 1.6 4.8 0.00 0.00 0.00 53 1008.5
20260903005010 33 153 1.6 4.8 0.00 0.00 0.00 53 1008.5
20260903003510 34 142 1.6 4.8 0.00 0.00 0.00 51 1008.5